loading
DOY 175 | 2024-06-23T12:13:07Z

THOR ABLESTAR DEB, 262

Orbit data source: Space-Track

THOR ABLESTAR DEB, 262 is space debris in LEO originally from a launch on Thu, 29 Jun 1961 UTC launched from the Air Force Eastern Test Range (AFETR). Debris objects in space refer to the collection of defunct objects orbiting the Earth. Examples of debris include non-operational satellites, rocket bodies, and fragments generated from explosions, collisions, or faulty payload assembly.

Loading next visibility...
Loading greatness...
THOR ABLESTAR DEB details
NORAD ID262
COSPAR ID
1961-015CJ
Orbit
LEO
Last TLE update19 hours ago
Origin
Flag of USUSAF SSD (US)
ManufacturerUnknown
BusUnknown
MotorUnknown
MassWet unknown, Dry mass unknown
Launch date (UTC)
1961-06-29 (63 years ago)
Launch vehicleUnknown
Launch site
Air Force Eastern Test Range (AFETR)
Object type
Payload
Rocket body
Debris
Radar Cross SectionSmall (<0.1 m²)
Predictive object data (real-time)
Latitude45.80495°
Longitude-120.71633°
Altitude752.656 km
Speed7.472 km/s
Apparent Right ascension07h 21m 07s
Apparent Declination11° 24' 34"
Sunlit
Object is in daylight
Predictive observer data (real-time)
Local Sidereal Time23:21:17
Azimuth61.254° ENE
Elevation-14.391°
Doppler factor1
Orbital elements
Apogee779.904 km
Perigee669.203 km
Semi-major axis7,102.691 km
Eccentricity0.0077929
Inclination66.4651°
RAAN260.396°
Arg. of periapsis241.2547°
True anomaly118.85583°
Mean anomaly118.0715°
Mean motion3.62584 °/min
BSTAR0.0011766
Period99.29 mins
Definitive object data (Epoch: 2024-06-22T17:24:31.727Z)
Latitude-0°
Longitude87.87922°
Altitude754.663 km
Speed7.464 km/s
True Right ascension17h 21m 35s
True Declination0° 00' 00"
Sunlit
Object was in full shadow at TLE epoch
TLE from 19 hours ago
0 THOR ABLESTAR DEB
1 00262U 61015CJ  24174.72536722  .00004634  00000-0  11766-2 0  9995
2 00262  66.4651 260.3960 0077929 241.2547 118.0715 14.49841539253051
Epoch: 2024-06-22T17:24Z
No data available

THOR ABLESTAR DEB Visibility forecast

Observer location: 39.9160978°, -105.1181434, 0m alt.

THOR ABLESTAR DEB is not visible in the next 10 days
Span
Click to sort rows by Start time (UTC) header in descending order
Start Az.
Max El. time (UTC)
Max El. Az.
Max El.
End time (UTC)
End Az.